Location: Beddau
(51.5575°N, 3.3561°W)
Time: 15:35:58
(UTC+00:00)

Cosmos 2278 Rocket - Pass Details

Date: 03 March 2021
Orbit: 841 x 845 km, 71.0° (Epoch: 13 April)

Event Time Altitude Azimuth Distance (km) Brightness Sun altitude
Rises 18:37:33 0° 329° (NNW) 3,417 5.8 -7.0°
Reaches altitude 10° 18:40:41 10° 346° (NNW) 2,479 4.8 -7.5°
Maximum altitude 18:44:50 20° 33° (NNE) 1,855 3.7 -8.1°
Enters shadow 18:48:53 10° 80° (E) 2,450 4.0 -8.8°
